Hutchinson, MN

3:11 PM CDT on September 19, 2017 (GMT -0500)
Hutchinson Municipal-Butler

Weather History for KHCD - October, 2014

Change the Weather History Date:

Monday, October 27, 2014

  Actual Average Record
Temperature  
Mean Temperature 50 °F -  
Max Temperature 62 °F 57 °F 79 °F (1989)
Min Temperature 38 °F 34 °F 12 °F (1976)
Degree Days  
Heating Degree Days 15    
Moisture  
Dew Point 39 °F    
Average Humidity 68    
Maximum Humidity 91    
Minimum Humidity 50    
Precipitation  
Precipitation 0.00 in - - ()
Sea Level Pressure  
Sea Level Pressure 29.59 in    
Wind  
Wind Speed 4 mph (NNW)    
Max Wind Speed 17 mph    
Max Gust Speed 22 mph    
Visibility 10 miles    
Events Rain    
Averages and records for this station are not official NWS values.
T = Trace of Precipitation, MM = Missing Value Source: NWS Daily Summary

Daily Weather History Graph

Daily Weather History Graph

Search for Another Location

Airport or City:

Trip Planner

Search our weather history database for the weather conditions in past years. The results will help you decide how hot, cold, wet, or windy it might be!

Date:

Astronomy

Oct. 27, 2014 Rise Set
Actual Time 7:48 AM CDT 6:13 PM CDT
Civil Twilight 7:18 AM CDT 6:43 PM CDT
Nautical Twilight 6:44 AM CDT 7:17 PM CDT
Astronomical Twilight 6:10 AM CDT 7:51 PM CDT
Moon 11:30 AM CDT (10/27) 9:14 PM CDT (10/27)
Length of Visible Light 11h 24m
Length of Day
10h 24m
Waxing Crescent, 15% of the Moon is Illuminated
Oct 27
Waxing Crescent
Oct 30
First Quarter
Nov 6
Full
Nov 14
Last Quarter
Nov 22
New

Hourly Weather History & Observations

Time (CDT) Temp. Windchill Dew Point Humidity Pressure Visibility Wind Dir Wind Speed Gust Speed Precip Events Conditions
12:12 AM 48.6 °F - 34.7 °F 59% 29.60 in 10.0 mi ESE 3.5 mph - N/A   Clear
12:32 AM 46.6 °F - 35.6 °F 66% 29.60 in 10.0 mi Calm Calm - N/A   Clear
12:53 AM 47.1 °F - 35.6 °F 64% 29.59 in 10.0 mi ENE 3.5 mph - N/A   Clear
1:12 AM 48.2 °F - 35.4 °F 61% 29.59 in 10.0 mi East 3.5 mph - N/A   Clear
1:32 AM 47.7 °F - 34.9 °F 61% 29.58 in 10.0 mi East 3.5 mph - N/A   Clear
1:53 AM 46.6 °F - 35.4 °F 65% 29.56 in 10.0 mi East 8.1 mph - N/A   Clear
2:12 AM 46.4 °F 42.9 °F 35.6 °F 66% 29.56 in 10.0 mi East 6.9 mph - N/A   Clear
2:32 AM 46.6 °F - 35.6 °F 66% 29.56 in 10.0 mi East 5.8 mph - N/A   Clear
2:53 AM 44.8 °F - 34.7 °F 68% 29.58 in 10.0 mi Calm Calm - N/A   Clear
3:12 AM 42.6 °F - 34.7 °F 74% 29.58 in 10.0 mi Calm Calm - N/A   Clear
3:32 AM 43.3 °F - 35.8 °F 75% 29.58 in 10.0 mi Calm Calm - N/A   Clear
3:52 AM 43.5 °F - 35.2 °F 73% 29.56 in 10.0 mi Calm Calm - N/A   Clear
4:12 AM 40.1 °F - 34.9 °F 82% 29.55 in 10.0 mi Calm Calm - N/A   Clear
4:33 AM 39.4 °F - 33.6 °F 80% 29.56 in 10.0 mi Calm Calm - N/A   Clear
4:52 AM 40.3 °F - 34.5 °F 80% 29.56 in 10.0 mi Calm Calm - N/A   Clear
5:12 AM 38.7 °F - 33.6 °F 82% 29.56 in 10.0 mi Calm Calm - N/A   Clear
5:33 AM 39.0 °F - 32.9 °F 79% 29.57 in 10.0 mi Calm Calm - N/A   Clear
5:52 AM 39.4 °F - 34.0 °F 81% 29.56 in 10.0 mi Calm Calm - N/A   Clear
6:13 AM 39.2 °F - 35.2 °F 86% 29.56 in 10.0 mi Calm Calm - N/A   Clear
6:32 AM 38.7 °F - 33.8 °F 83% 29.57 in 10.0 mi Calm Calm - N/A   Clear
6:52 AM 40.1 °F - 35.2 °F 83% 29.59 in 10.0 mi Calm Calm - N/A   Clear
7:13 AM 40.6 °F - 36.1 °F 84% 29.58 in 10.0 mi Calm Calm - N/A   Clear
7:33 AM 39.4 °F - 37.0 °F 91% 29.58 in 10.0 mi Calm Calm - N/A   Clear
7:52 AM 41.4 °F 37.6 °F 37.0 °F 85% 29.59 in 10.0 mi NNW 5.8 mph - N/A   Clear
8:13 AM 43.5 °F 41.9 °F 39.2 °F 85% 29.58 in 10.0 mi North 3.5 mph - N/A   Clear
8:32 AM 45.0 °F 42.6 °F 39.2 °F 80% 29.58 in 10.0 mi NNW 4.6 mph - N/A   Clear
8:53 AM 46.8 °F - 39.9 °F 77% 29.58 in 10.0 mi NW 3.5 mph - N/A   Clear
9:13 AM 49.1 °F - 39.6 °F 70% 29.58 in 10.0 mi NNW 3.5 mph - N/A   Clear
9:32 AM 51.6 °F - 40.5 °F 66% 29.59 in 10.0 mi NW 6.9 mph - N/A   Clear
9:53 AM 52.0 °F - 41.2 °F 67% 29.58 in 10.0 mi North 3.5 mph - N/A   Clear
10:12 AM 54.1 °F - 41.5 °F 62% 29.60 in 10.0 mi NW 4.6 mph - N/A   Clear
10:32 AM 54.9 °F - 41.2 °F 60% 29.60 in 10.0 mi NNW 5.8 mph - N/A   Clear
10:53 AM 57.0 °F - 41.7 °F 57% 29.60 in 10.0 mi Calm Calm - N/A   Scattered Clouds
11:13 AM 57.7 °F - 43.0 °F 58% 29.59 in 10.0 mi North 4.6 mph - N/A   Scattered Clouds
11:32 AM 59.4 °F - 42.8 °F 54% 29.60 in 10.0 mi NNE 3.5 mph - N/A   Clear
11:52 AM 59.5 °F - 43.0 °F 54% 29.60 in 10.0 mi Calm Calm - N/A   Clear
12:13 PM 60.8 °F - 43.0 °F 52% 29.63 in 10.0 mi WNW 8.1 mph - N/A   Mostly Cloudy
12:32 PM 61.9 °F - 43.5 °F 51% 29.62 in 10.0 mi WNW 13.8 mph - N/A   Scattered Clouds
12:52 PM 61.2 °F - 42.8 °F 51% 29.61 in 10.0 mi WNW 13.8 mph 17.3 mph N/A   Clear
1:12 PM 61.9 °F - 43.2 °F 50% 29.60 in 10.0 mi WNW 13.8 mph - N/A   Clear
1:33 PM 61.3 °F - 43.2 °F 51% 29.60 in 10.0 mi WNW 10.4 mph - N/A   Clear
1:52 PM 61.3 °F - 43.9 °F 53% 29.60 in 10.0 mi NW 11.5 mph - N/A   Scattered Clouds
2:13 PM 62.4 °F - 45.1 °F 53% 29.60 in 10.0 mi NW 12.7 mph - N/A   Scattered Clouds
2:32 PM 62.4 °F - 45.1 °F 53% 29.60 in 10.0 mi WNW 12.7 mph - N/A   Clear
2:53 PM 60.8 °F - 45.5 °F 57% 29.60 in 10.0 mi WNW 12.7 mph - N/A   Clear
3:13 PM 59.9 °F - 45.9 °F 60% 29.60 in 10.0 mi WNW 12.7 mph - N/A   Clear
3:32 PM 58.3 °F - 47.7 °F 68% 29.63 in 10.0 mi WNW 17.3 mph 21.9 mph N/A   Clear
3:52 PM 56.5 °F - 47.7 °F 72% 29.64 in 10.0 mi WNW 13.8 mph - N/A   Scattered Clouds
4:13 PM 54.7 °F - 46.9 °F 75% 29.66 in 10.0 mi WNW 13.8 mph 19.6 mph N/A   Mostly Cloudy
4:32 PM 53.6 °F - 46.4 °F 77% 29.67 in 10.0 mi WNW 12.7 mph - N/A   Overcast
4:42 PM 53.1 °F - 46.2 °F 78% 29.67 in 10.0 mi WNW 13.8 mph - N/A Rain Light Rain